Regional Weather Roundup
Issued by NWS Cleveland, OH

Home | Current Version | Previous Version | Text Only | Print | Product List | Glossary Off
Versions: 1 2 3 4 5 6 7 8 9 10 11 12 13 14 15 16 17 18 19 20 21 22 23 24 25 26 27 28 29 30 31 32 33 34 35 36 37 38 39 40 41 42 43 44 45 46 47 48 49 50

358
ASUS41 KCLE 242210
RWRCLE
OHIO REGIONAL WEATHER ROUNDUP
NATIONAL WEATHER SERVICE CLEVELAND, OH
600 PM EDT SAT SEP 24 2016

NOTE: "FAIR" INDICATES FEW OR NO CLOUDS BELOW 12,000 FEET WITH NO
SIGNIFICANT WEATHER AND/OR OBSTRUCTIONS TO VISIBILITY.

OHZ001>008-015>018-024>027-034-035-043-044-242300-
   NORTHWEST OHIO

CITY           SKY/WX    TMP DP  RH WIND       PRES   REMARKS
DEFIANCE       MOSUNNY   73  57  57 E6        30.18R
FINDLAY        SUNNY     73  56  54 NE10      30.16F
TOLEDO EXPRESS SUNNY     68  56  65 E8        30.18F
TOLEDO EXEC    SUNNY     69  54  58 E8        30.20S
LIMA           MOSUNNY   74  59  59 NE7       30.16S
$$

OHZ009>014-019>023-028>033-038-089-242300-
   NORTHEAST OHIO

CITY           SKY/WX    TMP DP  RH WIND       PRES   REMARKS
CLE-HOPKINS    SUNNY     67  51  56 NE17      30.21S
CLE-LAKEFRONT  SUNNY     66  51  58 NE15      30.18F
CUY CO. ARPT   SUNNY     66  52  59 NE14      30.20S
LORAIN-ELYRIA  SUNNY     66  50  56 NE9       30.20S
ASHTABULA      SUNNY     63  46  54 NE8       30.22S
AKRON-CANTON   SUNNY     71  48  43 NE9       30.17S
WOOSTER        SUNNY     71  52  50 N10       30.17S
MANSFIELD      SUNNY     71  54  54 N10       30.18S
YOUNGSTOWN     MOSUNNY   68  48  48 N9        30.18R
$$

OHZ042-051>053-060>062-070>072-077>081-242300-
  SOUTHWEST OHIO

CITY           SKY/WX    TMP DP  RH WIND       PRES   REMARKS
CINC-COVINGTON SUNNY     82  67  60 NE8       30.11S
CINC-LUNKEN    SUNNY     82  69  64 NE7       30.10F
HAMILTON       SUNNY     80  68  66 N7        30.12S
DAYTON         MOSUNNY   78  63  59 E6        30.15S
WRIGHT-PAT AFB MOSUNNY   79  65  62 NE6       30.13S
DAYTON GENERAL MOSUNNY   79  64  60 N8        30.13S
WILMINGTON     PTSUNNY   78  64  61 NE7       30.12S
$$

OHZ036-037-039>041-045>050-054>059-063>069-073>076-082>088-242300-
  CENTRAL AND SOUTHEAST OHIO

CITY           SKY/WX    TMP DP  RH WIND       PRES   REMARKS
COLUMBUS       MOSUNNY   79  61  53 VRB5      30.12S
OSU AIRPORT    SUNNY     78  60  53 N9        30.13S
BOLTON FIELD   SUNNY     79  61  53 N7        30.13F
RICKENBACK AFB SUNNY     77  61  58 N7        30.11F
NEWARK         MOSUNNY   78  57  48 VRB7      30.13R
MARION         SUNNY     75  56  51 NE10      30.16S
LANCASTER      SUNNY     80  60  50 N7        30.13S
ZANESVILLE     SUNNY     76  56  49 N7        30.14R
NEW PHILLY     SUNNY     77  51  40 VRB6      30.15S
$$




USA.gov is the U.S. government's official web portal to all federal, state and local government web resources and services.